Flag for U.S.A. Weather past 2 weeks in Baltimore, Maryland, U.S.A.

Now
57 °F

Light rain. Low clouds.


Feels Like: 55 °F
Forecast: 38 / 58 °F
Wind: 9 mph from Northwest

Location: Baltimore-Washington International Airport

Current Time: Dec 25, 2014 at 3:04:05 AM

Latest Report: Dec 25, 2014 at 1:54 AM


Visibility: 10 mi

Pressure: 29.60 "Hg

Humidity: 81%

Dew point: 51 °F

Location of BaltimoreLocation

Historic Weather in Baltimore — Graph

°F

Baltimore temperature yesterday

Maximum temperature yesterday: 61 °F (at 11:54 PM)
Minimum temperature yesterday: 46 °F (at 12:54 AM)
Average temperature yesterday: 50 °F

Past Weeks' High & Low Weather Summary

 TemperatureHumidityPressure
High61 °F (Dec 24, 11:54 PM)100% (Dec 16, 6:54 AM)30.37 "Hg (Dec 16, 6:54 AM)
Low25 °F (Dec 20, 5:54 AM)36% (Dec 12, 12:54 AM)29.53 "Hg (Dec 24, 11:54 PM)
Average39 °F72%30.04 "Hg
* Reported Dec 10 1:54 AM — Dec 25 1:54 AM, Baltimore, Weather by CustomWeather, © 2014

Note: Actual official high and low records may vary slightly from our data, if they occured in-between our weather recording intervals... More about our weather records

Advertising

Baltimore weather history for previous 24 hours

 ConditionsComfort  
Time TempWeatherWind HumidityBarometerVisibility
1:54 AM
Dec 25
57 °FLight rain. Low clouds.9 mph81%29.60 "Hg10 mi
12:54 AM60 °FMostly cloudy.12 mph93%29.55 "Hg10 mi
11:54 PM
Dec 24
61 °FLow clouds.12 mph93%29.53 "Hg10 mi
10:54 PM59 °FDrizzle. Fog.9 mph96%29.54 "Hg5 mi
9:54 PM57 °FFog.6 mph96%29.55 "Hg3 mi
8:54 PM53 °FDrizzle. Fog.5 mph100%29.58 "Hg0 mi
7:54 PM53 °FFog.3 mph96%29.60 "Hg5 mi
6:54 PM52 °FLight rain. Fog.5 mph100%29.61 "Hg5 mi
5:54 PM52 °FFog.3 mph97%29.62 "Hg3 mi
4:54 PM52 °FFog.No wind97%29.62 "Hg3 mi
3:54 PM52 °FFog.No wind97%29.66 "Hg3 mi
2:54 PM52 °FLight rain. Fog.No wind97%29.65 "Hg2 mi
1:54 PM51 °FLight rain. Fog.No wind96%29.67 "Hg1 mi
12:54 PM50 °FRain. Fog.3 mph100%29.69 "Hg1 mi
11:54 AM50 °FLight rain. Fog.No wind96%29.74 "Hg1 mi
10:54 AM49 °FLight rain. Fog.No wind97%29.80 "Hg1 mi
9:54 AM48 °FLight rain. Fog.No wind96%29.84 "Hg1 mi
8:54 AM47 °FLight rain. Fog.3 mph100%29.85 "Hg1 mi
7:54 AM47 °FLight rain. Fog.5 mph100%29.86 "Hg1 mi
6:54 AM47 °FLight rain. Fog.6 mph100%29.87 "Hg1 mi
5:54 AM46 °FLight rain. Fog.7 mph96%29.88 "Hg1 mi
4:54 AM46 °FLight rain. Fog.5 mph96%29.92 "Hg1 mi
3:54 AM46 °FLight rain. Fog.5 mph96%29.94 "Hg1 mi
Weather by CustomWeather, © 2014

See weather overviewHow to use our weather pages